www.pogodaiklimat.ru

Погода и климат >> Архив погоды >> Индия >> Тамилнад >> Нагапаттинам


ПОГОДА в Нагапаттинаме

  • Прогноз погоды в Нагапаттинаме
  • Монитор погоды в Нагапаттинаме

АРХИВ ПОГОДЫ в Нагапаттинаме

Время (UTC), дата Ветер
(напр.,м/с)
 
Видим.   Явления Облачность Т
(С)
Тd
(С)
f
(%)
Тe
(С)
Тes
(С)
Комфортность P
(гПа)
Po
(гПа)
Тmin
(С)
Tmax
(С)
R
(мм)
R24
(мм)
S
(см)
00 11.06 ЮЗ 2 4000 м 6/1 600 м
[Sc Ac trans Ci sp]
+28.6 +21.8 67 +37 +37 очень
душно
1004.8 1003.7 0.0
03 11.06 ЮЗ 4 10 км 6/0 2000 м
[Ac trans Ci sp]
+30.8 +23.9 67 +42 +46 опасность
перегрева
1005.8 1004.8 +28.2 +37.6 0.0
06 11.06 ЮЗ 4 10 км 6/3 600 м
[Sc Ac trans Ci sp]
+35.0 +23.6 52 +46 +54 опасность
перегрева
1004.7 1003.7
09 11.06 З 8 10 км 8/4 600 м
[Cu Sc Ci sp]
+38.4 +22.6 40 +47 +48 опасность
перегрева
1002.4 1001.4
12 11.06 Ю 8 10 км 6/1 600 м
[Sc Ac trans Ci sp]
+34.4 +24.5 56 +47 +47 опасность
перегрева
1001.9 1000.9 +39.1
15 11.06 Ю 5 4000 м 6/1 600 м
[Sc Ac trans Ci fib]
+31.6 +24.5 66 +44 +44 опасность
перегрева
1004.9 1003.9
18 11.06 Ю 4 4000 м 5/1 600 м
[Sc Ac trans Ci fib]
+31.2 +24.3 67 +43 +43 опасность
перегрева
1005.6 1004.6
21 11.06 Ю 2 4000 м 5/1 600 м
[Sc Ac trans Ci fib]
+29.6 +24.8 75 +42 +42 опасность
перегрева
1004.3 1003.3
00 12.06 Ю 1 4000 м 5/1 600 м
[Sc Ac trans Ci fib]
+29.0 +23.2 71 +39 +39 очень
душно
1004.5 1003.4
03 12.06 Ю 6 10 км 6/1 600 м
[Sc Ac trans Ci sp]
+31.6 +25.4 70 +46 +48 опасность
перегрева
1005.9 1004.9 +27.5 +39.1
06 12.06 Ю 7 10 км 6/5 600 м
[Cu Sc Ci fib]
+35.0 +23.2 51 +46 +48 опасность
перегрева
1005.2 1004.2
09 12.06 Ю 5 10 км 6/5 600 м
[Cu Sc Ci fib]
+37.6 +23.7 45 +48 +52 опасность
перегрева
1002.7 1001.7
12 12.06 Ю 8 10 км 5/1 600 м
[Sc Ac trans Ci fib]
+35.0 +24.5 55 +48 +48 опасность
перегрева
1002.5 1001.5 +38.2
15 12.06 Ю 5 4000 м 8/1 600 м
[Sc Ac trans Ci fib]
+32.0 +25.5 69 +47 +47 опасность
перегрева
1005.6 1004.6
18 12.06 ЮЗ 6 4000 м 5/1 600 м
[Sc Ac trans Ci fib]
+31.6 +22.2 58 +41 +41 опасность
перегрева
1005.4 1004.4
21 12.06 ЮЗ 4 4000 м 6/3 600 м
[Sc Ac trans Ci fib]
+30.8 +21.6 58 +39 +39 очень
душно
1004.2 1003.2
00 13.06 ЮЗ 3 4000 м 6/0
[Ac trans Ci sp]
+29.2 +21.8 64 +37 +37 очень
душно
1004.7 1003.7
03 13.06 Ю 2 10 км 6/1 600 м
[Sc Ac trans Ci sp]
+32.0 +23.5 61 +43 +48 опасность
перегрева
1006.5 1005.5 +28.0 +38.2
06 13.06 СЗ 4 10 км 6/3 600 м
[Sc Ac trans Ci sp]
+36.6 +22.8 45 +46 +53 опасность
перегрева
1005.8 1004.8
09 13.06 Ю 4 10 км 5/4 600 м
[Cu Sc Ac trans]
+35.0 +24.5 55 +48 +53 опасность
перегрева
1003.9 1002.9
12 13.06 Ю 6 10 км 8/3 600 м
[Cu Sc Ac trans Ci fib]
+34.0 +24.0 56 +46 +46 опасность
перегрева
1003.7 1002.7 +37.5
15 13.06 Ю 5 4000 м 6/1 600 м
[Sc Ac trans Ci fib]
+31.6 +25.4 70 +46 +46 опасность
перегрева
1006.6 1005.6
18 13.06 З 3 4000 м 6/1 600 м
[Sc Ac trans Ci fib]
+30.0 +22.7 65 +40 +40 очень
душно
1007.3 1006.3
21 13.06 З 4 4000 м 6/1 600 м
[Sc Ac trans Ci fib]
+29.6 +21.6 62 +38 +38 очень
душно
1004.5 1003.5
00 14.06 штиль 0 4000 м 8/0
[Ac trans Ci sp]
+27.8 +21.9 70 +36 +36 очень
душно
1005.4 1004.3
03 14.06 ЮЗ 4 10 км 5/1 600 м
[Sc Ac trans Ci fib]
+33.0 +24.5 61 +46 +49 опасность
перегрева
1007.4 1006.4 +27.1 +37.5
06 14.06 ЮЗ 5 10 км 5/1 600 м
[Sc Ac trans Ci fib]
+37.2 +21.1 39 +44 +51 опасность
перегрева
1006.5 1005.5
09 14.06 З 2 10 км 6/1 600 м
[Sc Ac trans Ci fib]
+37.8 +20.4 36 +44 +53 опасность
перегрева
1003.3 1002.3
12 14.06 Ю 4 10 км 6/1 600 м
[Cu Sc Ac trans Ci fib]
+34.8 +24.0 54 +47 +47 опасность
перегрева
1003.3 1002.3 +39.0
15 14.06 ЮЗ 3 4000 м 9/1 600 м
[Sc Ac trans]
+31.0 +26.3 76 +47 +47 опасность
перегрева
1006.3 1005.3
18 14.06 Ю 2 4000 м 6/0 2000 м
[Ac trans Ci fib]
+30.2 +25.7 77 +45 +45 опасность
перегрева
1006.8 1005.8
21 14.06 Ю 2 4000 м 1/0 2000 м
[Ac trans]
+29.8 +27.0 85 +47 +47 опасность
перегрева
1004.6 1003.6
00 15.06 ЮЗ 1 4000 м 3/0 2000 м
[Ac trans Ci fib]
+29.0 +25.3 80 +42 +42 опасность
перегрева
1005.5 1004.4
03 15.06 З 3 10 км 4/0 2000 м
[Ac trans Ci fib]
+23.6 +23.6 59 +20 +26 1007.0 1006.0 +29.0 +39.0
06 15.06 ЮЗ 2 10 км 3/1 600 м
[Sc Ci fib]
+37.4 +21.7 40 +45 +62 опасность
перегрева
1005.8 1004.8
09 15.06 ЮЗ 2 10 км 5/4 600 м
[Sc diur, vesp Ci sp]
+39.2 +21.9 37 +47 +55 опасность
перегрева
1002.7 1001.7
12 15.06 Ю 4 10 км 4/1 600 м
[Cb calv Ci sp]
+35.2 +24.1 53 +47 +48 опасность
перегрева
1003.1 1002.1 +40.0
15 15.06 Ю 2 4000 м 3/0
[Ci sp]
+31.2 +26.2 75 +47 +47 опасность
перегрева
1005.7 1004.7
18 15.06 Ю 2 4000 м 1/0
[Ci fib]
+30.2 +26.3 80 +46 +46 опасность
перегрева
1006.3 1005.3
21 15.06 Ю 3 4000 м 4/0
[Ci sp]
+29.8 +26.5 83 +46 +46 опасность
перегрева
1004.6 1003.6
00 16.06 З 1 4000 м 3/0
[Ci sp]
+29.2 +26.4 85 +45 +45 опасность
перегрева
1005.8 1004.8
03 16.06 ЮЗ 3 10 км 6/0
[Cs]
+32.0 +23.7 62 +43 +50 опасность
перегрева
1007.0 1006.0 +28.9 +40.0
06 16.06 З 2 10 км 4/0 2000 м
[Ac trans Ci fib]
+37.0 +20.8 39 +44 +63 опасность
перегрева
1006.1 1005.1
09 16.06 ЮВ 2 10 км 5/4 600 м
[Sc diur, vesp Ci fib]
+36.4 +27.1 59 +54 +63 опасность
перегрева
1003.8 1002.8
12 16.06 ЮВ 2 10 км 8/1 600 м
[Cu hum Cs]
+43.6 +26.6 39 +59 +60 опасность
перегрева
1003.5 1002.5 +40.0
15 16.06 Ю 2 4000 м 4/0
[Ci sp]
+30.8 +26.0 76 +46 +46 опасность
перегрева
1006.2 1005.2
18 16.06 Ю 3 4000 м 4/1 600 м
[Sc Ci fib]
+30.2 +26.3 80 +46 +46 опасность
перегрева
1006.5 1005.5
21 16.06 штиль 0 4000 м 4/1 600 м
[Sc Ci sp]
+29.6 +26.5 83 +45 +45 опасность
перегрева
1005.5 1004.5
00 17.06 штиль 0 4000 м 6/0 2000 м
[Ac trans Ci sp]
+29.0 +26.8 88 +45 +45 опасность
перегрева
1006.2 1005.1
03 17.06 З 4 10 км 9/3 600 м
[Sc Ac trans Cs]
+31.2 +21.7 57 +40 +42 очень
душно
1006.8 1005.8 +28.7 +40.0
06 17.06 СЗ 4 10 км 8/3 600 м
[Sc Ac trans Ci sp]
+36.6 +22.5 44 +45 +52 опасность
перегрева
1006.4 1005.4
09 17.06 ЮЗ 4 10 км 6/3 600 м
[Sc diur, vesp Ac trans Ci sp]
+38.4 +22.6 40 +47 +52 опасность
перегрева
1003.9 1002.9
12 17.06 ЮЗ 4 10 км 8/3 600 м
[Sc Ac trans Cs]
+34.6 +24.4 56 +47 +48 опасность
перегрева
1004.1 1003.1 +39.0
15 17.06 ЮЗ 3 4000 м 8/1 600 м
[Sc Ac trans Ci sp]
+31.2 +26.2 75 +47 +47 опасность
перегрева
1006.2 1005.2
18 17.06 ЮЗ 5 4000 м 6/1 600 м
[Sc Ac trans Ci fib]
+30.6 +26.4 78 +47 +47 опасность
перегрева
1006.6 1005.6

 

Местоположение метеостанции Нагапаттинам (Тамилнад, Индия): широта 10.77 долгота 79.85 высота над уровнем моря 9 м.

В архиве по умолчанию представлена погода в Нагапаттинаме за последнюю неделю. Архивные данные за месяц целиком и за предыдущие месяцы, начиная с января 2011 года, Вы можете получить, выбрав интересующий диапазон дат из раскрывающегося списка и нажав кнопку "Ввод!".


*Определитесь, кто Вы:
робот инопланетянин человек

Внимание! Время в таблицах - всемирное. Для получения местного времени необходимо прибавить поправку, которая равна 5.5 ч.

Смотрите также архив погоды в соседних городах и на ближайших метеорологических станциях:

Погода в Карайкале (Пондичерри, Индия) (17 км)
Погода в Адирампаттинаме (Тамилнад, Индия) (71 км)
Погода в Танджавуре (Тамилнад, Индия) (79 км)
Погода в Парангипеттае (Тамилнад, Индия) (82 км)
Погода в Куддалоре (Тамилнад, Индия) (112 км)
Погода в Тиручирапалли (Тамилнад, Индия) (123 км)
Погода в Джафне (Шри Ланка) (126 км)
Погода в Пондичерри (Пондичерри, Индия) (134 км)
Погода в Кудумиянмалае (Тамилнад, Индия) (135 км)
Погода в Тонди (Тамилнад, Индия) (146 км)

Пояснения к столбцам:

Ветер - указаны скорость ветра в м/с - средняя за 10 мин, порывы в срок и между сроками (в фигурных скобках) и направление, откуда дует ветер: С - северный, СВ - северо-восточный, В - восточный, ЮВ - юго-восточный, Ю - южный, ЮЗ - юго-западный, З - западный, СЗ - северо-западный.
Видимость - горизонтальная дальность видимости в метрах или километрах. При видимости от 1 до 10 км при отсутствии осадков обычно наблюдается дымка, при ухудшении видимости до 1 км и менее - туман. В сухую погоду видимость может ухудшаться дымом, пылью или мглою.
Явления - указаны атмосферные явления, наблюдавшиеся в срок или в последний час перед сроком; фигурными скобками обозначены явления, наблюдавшиеся между сроками (за 1-3 часа до срока); квадратными скобками обозначены град или гололедные отложения с указанием их диаметра в мм.
Облачность - указаны через наклонную черту общая и нижняя облачность в баллах и высота нижней границы облаков в метрах; квадратными скобками обозначены формы облаков: Ci - перистые, Cs - перисто-слоистые, Cc - перисто-кучевые, Ac - высококучевые, As - высокослоистые, Sc - слоисто-кучевые, Ns - слоисто-дождевые, Cu - кучевые, Cb - кучево-дождевые. Подробнее классификацию облаков см. в Атласе облаков (PDF).
T - Температура воздуха - температура, измеренная на высоте 2 м над землей.
Td - Температура точки росы - температура, при понижении до которой содержащийся в воздухе водяной пар достигнет насыщения.
f - Относительная влажность воздуха - влажноcть воздуха, измеренная на высоте 2 м над землей.
Te - Эффективная температура - температура, которую ощущает одетый по сезону человек в тени. Характеристика душности погоды. При расчете учитывается влияние влажности воздуха и скорости ветра на теплоощущения человека.
Tes - Эффективная температура на солнце - температура, которую ощущает человек, с поправкой на солнечный нагрев. Характеристика знойности погоды. Зависит от высоты солнца над горизонтом, облачности и скорости ветра. Ночью, в пасмурную погоду, а также при ветре 12 м/с и более поправка равна нулю.
P - Атмосферное давление - приведенное к уровню моря атмосферное давление.
Po - Атмосферное давление - измеренное на уровне метеостанции атмосферное давление.
Tmin - Минимальная температура - минимум температуры воздуха на высоте 2 м над землей.
Tmax - Максимальная температура - максимум температуры воздуха на высоте 2 м над землей.
R - Количество осадков - Количество выпавших осадков за период времени, мм. При наведении курсора мыши на число - период времени, за который выпало указанное количество осадков.
R24 - Количество осадков - Количество выпавших осадков за 24 часа, мм.
S - Снежный покров - Высота снежного покрова, см. При наведении курсора мыши на число - состояние снежного покрова и степень покрытия местности в баллах.